Probability
0 0 0 0 0 0 0 0 0 0 0 0 0 0 0 0 0 0 0 2 5 14 26 34 37 36 32 28 26 28 28 26 22 20 19 19 20 19 17 15 12 8 8 8 6 4 4 5 6
0 0 0 0 0 0 0 0 0 0 0 0 0 0 0 0 0 1 2 4 7 15 26 34 38 37 34 31 29 30 32 30 25 23 23 22 20 19 17 14 11 9 9 10 8 5 4 4 5
0 0 0 0 0 0 0 0 0 0 0 0 0 0 0 1 1 2 5 8 11 17 27 35 39 38 35 33 30 31 35 36 31 29 30 26 22 21 18 15 12 10 10 10 8 6 4 4 5
0 0 0 0 0 0 0 0 0 0 0 0 0 0 1 2 3 4 6 10 13 18 25 35 41 40 37 34 31 32 35 37 37 36 35 30 24 22 20 16 14 12 10 9 7 6 6 7 7
0 0 0 0 0 0 0 0 0 0 0 0 0 0 2 4 7 8 9 11 13 18 24 33 41 41 38 36 34 34 35 36 37 38 37 31 25 21 19 16 12 10 8 7 7 7 9 9 9
0 0 0 0 0 0 0 0 0 0 0 0 0 0 2 7 11 13 12 11 13 17 22 30 37 38 36 35 35 35 34 35 36 37 36 30 24 19 17 14 9 6 6 6 7 8 9 8 8
0 0 0 0 0 0 1 1 1 1 0 1 1 1 4 9 13 15 14 13 14 17 21 26 31 33 33 33 33 33 33 34 36 36 33 28 22 19 16 12 8 5 4 4 6 7 7 6 6
0 0 0 0 0 0 1 2 2 1 1 2 4 5 7 11 15 17 19 19 19 22 24 25 27 28 28 29 30 30 31 33 34 33 28 23 20 18 14 10 8 5 4 3 4 5 6 5 5
0 0 0 0 0 0 1 3 3 2 3 5 8 9 11 16 18 22 28 29 28 27 27 25 25 25 25 26 27 28 29 30 31 29 24 20 19 16 11 8 6 4 1 1 3 4 5 4 3
0 0 0 0 0 0 1 3 4 4 5 6 8 10 14 20 24 28 32 34 31 30 28 25 26 26 27 26 27 28 28 28 27 25 23 22 20 16 11 9 8 5 2 1 2 3 3 2 2
0 0 0 0 0 1 2 4 6 6 5 5 6 11 17 23 27 30 32 32 31 28 27 27 28 29 30 29 29 29 29 29 27 24 23 23 22 18 14 13 12 9 6 4 3 3 2 1 1
0 0 0 0 0 1 3 5 6 6 4 3 6 12 18 23 27 29 31 31 29 26 25 27 29 31 32 32 31 31 30 30 30 28 25 24 23 20 17 15 14 12 10 8 6 6 4 2 2
0 0 0 0 0 1 2 4 4 5 3 4 7 12 16 21 24 27 30 31 28 25 25 27 30 33 35 34 32 31 30 30 30 30 27 23 22 21 18 16 15 13 12 11 11 8 5 4 4
0 0 0 0 1 1 2 2 3 3 4 5 7 8 12 17 20 22 26 29 27 23 23 26 29 35 37 33 29 28 27 28 29 29 25 20 18 19 19 18 17 15 14 13 13 10 7 8 9
0 0 0 0 1 1 2 3 2 3 5 5 5 7 10 13 15 16 20 25 25 23 23 24 27 33 36 31 27 26 25 26 27 27 22 17 15 17 19 18 18 17 15 14 13 12 11 12 13
0 0 0 0 0 0 1 2 2 3 4 4 4 7 10 11 11 11 14 20 24 26 27 26 28 32 35 33 30 27 25 24 24 23 20 17 16 18 19 18 18 18 15 12 13 14 15 16 16
0 0 0 0 0 0 0 1 1 2 3 4 5 8 10 9 7 7 11 17 23 27 30 31 31 32 34 34 32 30 26 22 21 20 19 19 19 20 20 20 20 20 17 14 14 16 18 19 19
0 0 0 0 0 0 0 0 0 1 3 5 8 10 10 9 7 6 9 13 19 25 30 33 32 32 33 33 31 30 26 22 20 20 19 20 20 19 20 21 21 22 20 18 18 20 22 23 22
0 0 0 0 0 0 0 0 0 0 2 5 10 12 13 11 10 9 9 10 17 25 30 32 33 33 32 30 29 27 24 20 18 18 18 18 19 19 19 20 21 22 22 23 23 24 24 24 23
0 0 0 0 0 0 0 0 0 0 0 3 8 12 13 12 12 12 10 9 15 25 31 33 34 33 29 26 25 24 21 17 16 16 15 16 17 18 19 20 21 21 22 24 26 25 23 22 23
0 0 0 0 0 0 0 0 1 1 0 1 5 9 11 12 12 12 11 11 17 27 31 33 34 31 26 22 20 20 19 17 16 15 15 15 17 18 19 20 20 21 21 22 24 24 22 21 21
0 0 0 0 0 0 0 1 3 2 1 1 3 7 9 11 13 13 12 14 21 29 32 31 29 26 22 19 17 18 19 17 16 15 15 16 17 17 17 17 18 18 19 19 20 21 22 22 22
0 0 0 0 0 0 0 1 3 3 2 2 3 6 9 10 12 12 13 15 20 26 28 25 20 19 18 16 15 16 16 16 16 16 16 17 17 16 14 13 14 16 17 17 17 19 22 22 22
0 0 0 0 0 0 0 1 3 3 3 3 5 7 8 9 10 12 14 15 17 20 21 18 14 14 15 14 13 11 11 14 16 17 16 16 16 15 12 11 13 15 16 15 15 17 19 20 19
0 0 0 0 0 0 0 1 3 4 4 5 6 7 8 9 10 12 15 17 17 18 18 15 14 14 16 16 14 11 11 14 18 19 18 17 17 15 12 12 13 13 13 12 13 14 15 16 16
0 0 0 0 0 0 0 1 2 2 3 4 6 7 8 8 9 12 16 18 18 18 18 16 16 17 19 19 17 15 15 16 18 20 20 19 18 16 13 13 12 11 9 9 10 12 13 13 14
0 0 0 0 0 0 0 0 0 1 2 4 5 7 8 8 9 12 15 18 18 17 16 15 16 18 19 18 17 17 17 16 17 19 20 20 19 16 14 13 11 9 8 7 8 9 10 12 13
0 0 0 0 0 0 0 0 0 1 2 3 4 6 7 8 9 12 15 17 16 15 13 13 14 15 16 15 14 14 14 14 15 17 19 19 18 16 14 12 9 7 8 8 7 7 8 10 11
0 0 0 0 0 0 0 0 0 0 1 1 3 5 6 7 8 11 14 15 14 13 12 11 11 12 13 14 14 13 11 11 13 15 16 16 15 14 13 11 8 7 7 7 7 7 7 8 9
0 0 0 0 0 0 0 0 0 0 0 1 2 4 6 6 7 9 13 14 13 12 11 10 9 10 12 14 16 14 12 11 12 13 12 12 11 11 11 10 8 7 6 7 7 8 7 7 9
Wind_Speed
7 7 6 6 7 5 1 2 2 2 2 3 3 3 4 5 5 4 5 7 7 11 14 16 13 13 13 12 12 12 12 12 12 12 12 12 11 11 10 10 9 8 8 7 6 6 6 5 4
5 5 7 7 7 3 3 2 2 4 4 2 1 3 3 2 2 2 4 7 9 11 13 14 14 13 13 12 12 12 12 12 12 12 12 12 11 11 10 9 9 8 8 7 6 5 5 5 4
6 7 7 6 3 1 2 3 3 3 2 2 2 1 2 2 2 2 5 10 10 11 12 14 15 13 13 13 12 12 12 12 12 12 12 11 11 10 9 9 9 8 7 7 6 5 4 4 4
6 6 6 6 2 2 4 4 3 2 1 1 2 1 1 2 1 3 8 10 12 12 12 15 14 13 12 12 12 11 11 11 12 11 11 11 10 10 9 9 8 8 7 6 6 5 4 4 3
7 6 6 4 1 1 2 3 3 3 2 1 2 1 1 2 3 6 9 10 11 11 11 14 13 12 12 12 12 11 10 11 11 11 10 10 9 9 8 8 7 7 6 6 6 6 5 4 4
6 6 5 2 2 1 1 2 3 3 2 2 2 2 1 3 4 6 8 9 10 11 11 13 14 12 12 12 12 11 11 10 10 10 10 9 9 8 8 7 7 6 6 5 6 5 5 5 4
6 5 3 1 1 0 2 3 4 3 3 3 4 3 1 3 4 6 7 8 9 10 10 11 13 13 12 10 10 10 10 10 10 9 9 9 9 8 8 7 6 6 5 5 5 5 5 5 5
5 6 4 2 2 1 2 2 3 4 4 3 4 3 0 4 5 7 8 8 9 9 9 10 10 10 11 11 11 9 9 9 10 9 9 9 9 9 9 9 7 6 5 5 5 5 5 5 5
6 7 2 1 3 3 3 4 4 4 3 3 3 4 2 6 8 8 8 8 8 8 8 8 9 9 8 9 10 10 9 9 9 9 10 9 8 8 8 6 6 6 5 6 6 5 6 6 8
6 5 3 5 6 5 5 6 5 3 4 3 1 1 3 7 8 10 10 10 10 9 9 7 8 8 8 6 7 6 7 7 7 6 7 6 5 4 4 7 6 6 6 7 6 6 8 9 6
5 5 5 5 6 6 6 5 4 3 3 4 4 1 4 6 7 7 8 8 9 9 8 7 7 7 6 5 5 4 4 5 6 6 6 4 4 4 4 3 6 6 7 6 6 7 5 5 4
5 6 7 6 7 6 5 3 3 3 4 4 3 0 4 5 5 5 5 6 6 7 7 7 6 6 6 4 4 4 4 4 4 5 6 4 3 3 3 2 3 3 3 3 3 3 4 4 5
6 6 6 6 5 4 2 2 2 3 3 3 2 1 3 4 3 3 3 4 5 6 6 7 7 6 6 5 4 4 3 3 4 4 4 4 4 3 3 2 2 3 2 3 3 3 4 5 5
4 6 7 5 2 0 1 2 2 3 3 3 2 1 3 3 2 3 3 4 4 5 5 6 6 6 6 5 4 3 3 3 3 4 4 5 3 3 3 3 3 3 3 3 3 3 4 4 4
6 6 4 1 1 1 3 1 3 5 3 2 2 2 2 2 2 2 2 3 4 4 4 5 6 6 6 6 5 4 4 4 3 3 3 4 4 4 4 3 3 2 2 3 4 4 4 4 4
7 7 3 4 3 1 5 3 6 5 3 3 2 2 2 2 1 0 1 2 3 3 4 4 4 5 6 5 5 3 3 4 3 3 3 4 5 5 4 3 3 3 3 3 3 4 4 4 4
5 4 4 1 2 2 4 3 5 5 4 4 3 2 2 1 1 1 0 1 3 3 4 4 4 5 5 5 4 4 3 3 3 3 3 4 5 5 4 3 2 4 3 3 4 3 4 4 4
6 6 5 4 2 2 2 2 3 4 4 4 5 4 3 3 2 1 1 1 1 2 3 4 5 5 5 4 4 3 3 3 3 2 3 4 4 5 4 3 3 4 3 3 3 4 4 4 4
6 6 6 4 2 3 3 1 2 3 4 5 5 5 4 4 5 3 2 2 1 1 3 4 4 5 4 4 4 3 3 3 3 3 3 4 4 4 4 3 3 4 3 3 4 4 4 4 3
6 7 5 1 1 4 2 1 2 2 4 4 5 5 5 5 5 4 3 2 1 2 2 3 4 5 5 4 3 2 2 2 2 2 2 3 4 4 4 4 4 3 3 4 4 4 3 3 3
5 6 6 5 4 5 5 4 4 3 4 5 5 5 6 6 6 4 3 2 1 1 2 2 3 4 4 4 3 3 3 3 3 3 3 3 3 3 3 4 4 3 4 3 4 4 5 4 3
5 5 6 6 8 4 5 6 3 2 3 5 5 5 6 6 6 5 4 3 2 1 1 2 2 3 4 4 4 4 3 3 2 2 2 3 3 3 4 4 4 4 4 3 5 4 4 5 4
6 7 8 9 8 7 4 7 2 3 5 7 6 6 6 6 6 5 4 3 2 2 1 1 1 2 3 3 4 4 3 3 2 2 3 3 3 4 4 4 4 4 4 3 4 4 5 5 5
5 6 7 9 8 5 3 7 3 5 7 8 8 7 6 6 6 5 4 3 2 2 1 1 1 1 2 3 3 4 3 3 2 3 3 3 3 3 4 4 3 4 3 4 4 5 6 5 5
6 7 5 4 4 2 3 4 4 7 7 8 9 7 6 6 6 6 6 4 3 2 1 1 0 1 2 2 3 3 4 4 4 4 4 3 3 3 3 3 3 3 3 4 4 5 5 5 6
5 7 6 7 7 6 3 3 5 6 6 7 8 8 7 7 7 7 6 5 3 3 1 1 0 1 1 2 2 3 3 3 3 3 3 3 3 2 2 3 3 3 4 5 4 5 5 4 5
5 5 6 8 8 8 3 2 2 5 8 9 9 9 9 8 8 7 6 5 4 3 1 0 0 0 1 2 2 3 3 3 3 3 4 3 2 2 3 3 3 4 4 4 5 4 5 5 5
5 6 5 6 6 7 5 3 6 10 11 11 11 10 9 9 8 7 6 5 4 3 1 1 0 0 1 2 2 2 2 2 3 3 2 2 2 2 3 3 3 4 4 4 4 4 4 5 4
4 3 5 4 4 6 6 4 6 9 10 11 10 10 9 9 8 7 6 5 4 3 2 1 0 0 1 1 1 1 1 2 2 2 2 2 2 3 3 3 4 4 4 3 3 5 4 5 4
4 5 5 5 4 5 6 3 6 7 9 9 9 9 9 8 8 7 7 7 5 4 3 2 1 0 1 1 1 1 1 1 2 2 2 2 3 3 3 4 4 4 4 3 4 4 4 4 5
Wind_Direction
205 210 229 237 236 222 125 78 23 30 30 29 2 320 328 336 336 19 81 133 140 145 144 152 155 156 155 153 151 152 153 154 155 156 156 157 158 158 158 158 157 156 153 153 158 160 160 161 168
201 211 230 239 251 202 109 62 35 16 12 348 306 281 287 324 1 59 120 137 145 144 148 154 151 156 154 152 153 155 157 158 159 159 158 158 158 159 160 159 158 156 155 153 154 159 160 161 164
204 234 254 245 243 314 49 46 41 26 352 282 262 286 316 1 66 97 119 142 146 144 148 143 153 156 154 154 155 157 159 158 159 159 158 158 158 159 161 161 160 159 160 160 164 163 165 169 172
220 221 236 244 204 18 351 3 354 318 349 283 264 188 114 36 32 104 132 147 148 149 152 141 152 153 154 154 155 157 160 161 160 159 158 159 159 162 165 166 167 168 168 169 171 172 169 180 179
238 247 231 211 157 50 349 343 310 297 309 323 271 246 72 69 96 128 143 151 151 150 149 142 149 151 154 156 158 159 161 162 161 159 159 160 162 164 166 169 173 175 174 175 176 175 176 187 199
232 241 238 204 112 59 27 338 287 295 317 309 278 251 54 102 135 145 150 155 151 148 149 141 149 155 158 161 162 161 161 161 160 160 161 162 162 167 171 175 178 177 178 179 178 180 186 194 207
265 257 258 253 182 146 21 339 308 317 317 331 303 276 137 130 137 147 150 153 150 151 151 151 157 161 161 161 162 161 161 161 161 162 164 165 165 173 178 184 187 182 183 187 188 192 199 207 213
282 265 232 222 262 21 33 337 321 314 322 332 295 285 86 129 142 147 146 150 152 155 157 157 159 162 169 167 164 163 162 165 165 167 170 171 174 180 187 192 184 190 192 196 199 202 208 215 222
258 251 243 333 317 345 342 314 315 302 290 292 297 321 24 133 151 156 152 158 159 160 164 165 164 167 178 172 161 171 171 172 176 177 175 185 194 187 187 180 172 199 207 209 210 212 217 227 218
249 263 337 342 325 319 311 316 317 276 283 284 296 26 114 152 167 171 170 171 170 171 172 168 170 172 181 176 165 183 184 175 193 183 182 194 192 200 201 152 181 204 216 215 214 221 226 235 229
255 289 327 320 321 311 303 314 316 290 296 324 315 220 159 165 176 186 185 183 177 173 174 175 177 177 182 178 177 187 190 180 192 189 192 197 199 193 204 189 184 200 214 222 199 214 231 238 245
265 286 301 310 319 311 307 311 332 348 332 338 332 317 156 165 180 187 188 183 175 174 177 181 180 179 189 190 185 192 195 187 196 186 200 196 197 205 203 213 213 211 217 228 246 238 235 245 245
257 287 306 309 311 325 344 337 340 351 358 7 28 120 155 160 167 165 168 171 174 175 180 182 185 184 187 191 207 195 206 197 188 194 195 205 200 206 205 211 227 234 230 226 239 248 245 244 242
302 303 295 295 317 38 358 16 20 19 21 39 68 123 158 151 145 151 170 176 179 182 183 180 187 185 187 192 199 193 203 196 209 205 197 209 213 205 209 209 217 231 240 259 257 249 245 246 254
272 266 252 110 24 62 282 356 27 19 11 49 97 117 120 116 130 154 180 193 186 181 182 181 185 185 192 195 201 197 194 199 202 204 200 206 215 205 215 216 222 234 240 239 250 250 249 247 246
242 249 258 68 10 2 285 352 35 21 14 52 82 94 95 80 64 174 184 204 202 195 188 190 191 191 196 199 203 204 202 202 202 197 195 198 209 209 215 221 227 234 237 235 240 249 255 254 256
234 289 317 34 37 348 313 350 38 26 30 45 52 49 51 35 356 23 40 210 214 203 196 194 197 198 196 193 195 196 196 212 205 201 198 196 208 208 216 225 233 236 239 244 248 245 259 258 259
321 314 308 316 22 329 312 1 55 43 39 43 44 36 23 355 335 358 352 289 235 208 201 203 199 194 189 186 192 196 200 212 207 201 203 211 209 210 220 216 224 240 240 244 245 254 256 263 259
298 296 295 316 336 306 304 344 54 50 40 34 32 25 15 3 7 7 349 327 264 213 200 202 204 190 186 186 200 204 209 208 206 205 207 218 220 213 217 236 219 233 235 246 247 253 247 253 256
281 286 292 305 338 300 285 288 96 57 32 24 21 11 1 359 4 8 358 356 280 228 223 212 202 192 194 191 202 217 219 213 202 200 198 222 220 214 213 224 231 225 232 235 245 248 262 261 258
290 303 315 312 294 241 242 227 149 96 49 28 18 8 1 355 352 354 344 317 293 250 243 243 215 193 193 194 196 190 194 206 198 190 196 210 214 207 226 229 237 241 241 236 244 247 248 253 252
302 333 299 280 274 272 274 286 106 73 41 23 7 2 0 356 356 358 349 329 318 302 250 246 221 201 192 194 206 208 218 223 223 217 196 195 201 214 219 227 231 240 245 241 244 244 247 250 251
334 316 281 269 271 279 265 281 59 48 5 9 5 2 359 358 4 5 357 343 339 347 30 135 156 176 187 203 212 222 228 224 212 207 189 206 198 210 219 224 233 240 246 250 256 251 251 245 251
318 283 260 243 248 262 341 299 352 31 0 353 358 360 1 2 6 5 6 9 2 3 37 80 104 174 205 213 219 221 222 220 212 215 206 211 204 206 214 226 231 238 244 240 246 251 247 250 257
328 313 278 256 256 324 21 297 29 33 8 353 351 353 359 3 1 2 1 0 353 351 11 49 116 215 223 220 217 215 219 221 220 223 210 222 220 213 209 231 236 245 246 247 250 252 260 253 250
343 326 323 312 319 321 305 325 47 29 6 358 2 3 6 3 358 359 357 348 343 341 349 349 308 256 233 215 213 211 219 232 231 231 240 227 234 228 224 229 235 244 250 252 251 254 253 250 252
328 338 328 293 287 286 312 346 105 26 6 2 3 0 360 359 358 356 356 355 348 346 334 317 202 245 233 209 202 204 213 235 241 228 228 229 222 220 228 235 236 247 253 256 254 258 259 255 251
350 332 301 303 315 308 314 338 5 358 355 355 354 352 355 354 357 1 2 358 351 344 350 11 29 227 226 205 214 206 211 218 220 222 217 222 225 234 241 250 254 256 254 255 258 258 254 251 252
349 345 319 305 314 307 313 357 30 356 350 345 346 347 350 351 357 3 5 4 1 2 17 41 27 253 226 203 196 213 216 211 219 215 209 208 222 235 243 249 253 255 254 260 261 264 259 254 254
342 343 328 315 319 297 297 335 47 2 347 347 345 349 352 356 1 7 7 8 3 11 15 27 6 329 272 199 167 189 201 198 204 202 208 215 228 239 242 244 246 250 257 262 259 260 259 259 258